Tracking 30289 objects as of 29-Apr-2025
HD Live streaming from Space Station
objects crossing your sky now

STARLINK-11588

Track STARLINK-11588 now!
10-day predictions
STARLINK-11588 is classified as:


NORAD ID: 63319
Int'l Code: 2025-057N
Perigee: 361.5 km
Apogee: 365.5 km
Inclination: 43.0 °
Period: 91.7 minutes
Semi major axis: 6734 km
RCS: Unknown
Launch date: March 18, 2025
Source: United States (US)
Launch site: AIR FORCE EASTERN TEST RANGE (AFETR)
Your satellite tracking list
Your tracking list is empty




NASA's NSSDC Master Catalog

Two Line Element Set (TLE):
1 63319U 25057N   25118.92041254 -.00014731  00000-0 -11122-3 0  9993
2 63319  43.0019   1.7626 0003011 282.0789  77.9741 15.70892587  7547
Source of the keplerian elements: AFSPC